Data supplied by UK-AIR on 27/3/2021
All Data GMT hour ending 
Status: R =Ratified P=Provisional,P*=As supplied
,,Sheffield Barnsley Road,,,,,,,,,,,,,,,,,,,,,,,
Date,time,"Nitric oxide",status,unit,"Nitrogen dioxide",status,unit,"Nitrogen oxides as nitrogen dioxide",status,unit,"PM<sub>2.5</sub> particulate matter (Hourly measured)",status,unit
 
01-01-2020,01:00,29.09253,R,ugm-3,38.35171,R,ugm-3,82.95964,R,ugm-3,56.000,R,ugm-3 (BAM)
01-01-2020,02:00,59.63969,R,ugm-3,47.46939,R,ugm-3,138.91564,R,ugm-3,32.000,R,ugm-3 (BAM)
01-01-2020,03:00,35.36854,R,ugm-3,41.81287,R,ugm-3,96.04388,R,ugm-3,34.000,R,ugm-3 (BAM)
01-01-2020,04:00,34.59431,R,ugm-3,38.09343,R,ugm-3,91.13729,R,ugm-3,28.000,R,ugm-3 (BAM)
01-01-2020,05:00,34.77027,R,ugm-3,38.24120,R,ugm-3,91.55487,R,ugm-3,27.000,R,ugm-3 (BAM)
01-01-2020,06:00,11.50797,R,ugm-3,22.91235,R,ugm-3,40.55766,R,ugm-3,14.000,R,ugm-3 (BAM)
01-01-2020,07:00,22.27690,R,ugm-3,29.47163,R,ugm-3,63.62907,R,ugm-3,18.000,R,ugm-3 (BAM)
01-01-2020,08:00,18.93361,R,ugm-3,28.07322,R,ugm-3,57.10435,R,ugm-3,13.000,R,ugm-3 (BAM)
01-01-2020,09:00,44.20188,R,ugm-3,39.17794,R,ugm-3,106.95321,R,ugm-3,18.000,R,ugm-3 (BAM)
01-01-2020,10:00,73.02460,R,ugm-3,68.21717,R,ugm-3,180.18667,R,ugm-3,21.000,R,ugm-3 (BAM)
01-01-2020,11:00,37.16337,R,ugm-3,41.93173,R,ugm-3,98.91476,R,ugm-3,24.000,R,ugm-3 (BAM)
01-01-2020,12:00,11.89509,R,ugm-3,23.31053,R,ugm-3,41.54942,R,ugm-3,26.000,R,ugm-3 (BAM)
01-01-2020,13:00,21.29151,R,ugm-3,25.34518,R,ugm-3,57.99171,R,ugm-3,29.000,R,ugm-3 (BAM)
01-01-2020,14:00,26.11289,R,ugm-3,33.24644,R,ugm-3,73.28566,R,ugm-3,32.000,R,ugm-3 (BAM)
01-01-2020,15:00,34.48873,R,ugm-3,35.12345,R,ugm-3,88.00542,R,ugm-3,26.000,R,ugm-3 (BAM)
01-01-2020,16:00,34.69988,R,ugm-3,41.22000,R,ugm-3,94.42575,R,ugm-3,31.000,R,ugm-3 (BAM)
01-01-2020,17:00,31.35659,R,ugm-3,40.60456,R,ugm-3,88.68399,R,ugm-3,40.000,R,ugm-3 (BAM)
01-01-2020,18:00,38.07837,R,ugm-3,47.05345,R,ugm-3,105.43948,R,ugm-3,26.000,R,ugm-3 (BAM)
01-01-2020,19:00,136.05452,R,ugm-3,70.69620,R,ugm-3,279.31022,R,ugm-3,39.000,R,ugm-3 (BAM)
01-01-2020,20:00,82.77295,R,ugm-3,48.10234,R,ugm-3,175.01909,R,ugm-3,39.000,R,ugm-3 (BAM)
01-01-2020,21:00,58.10295,R,ugm-3,44.48412,R,ugm-3,133.57407,R,ugm-3,28.000,R,ugm-3 (BAM)
01-01-2020,22:00,30.37120,R,ugm-3,37.10449,R,ugm-3,83.67301,R,ugm-3,26.000,R,ugm-3 (BAM)
01-01-2020,23:00,7.81275,R,ugm-3,22.99311,R,ugm-3,34.97250,R,ugm-3,25.000,R,ugm-3 (BAM)
01-01-2020,24:00,7.53121,R,ugm-3,21.70228,R,ugm-3,33.24997,R,ugm-3,18.000,R,ugm-3 (BAM)
02-01-2020,01:00,5.58136,R,ugm-3,15.79438,R,ugm-3,24.35235,R,ugm-3,11.000,R,ugm-3 (BAM)
02-01-2020,02:00,1.21946,R,ugm-3,6.34041,R,ugm-3,8.21022,R,ugm-3,6.000,R,ugm-3 (BAM)
02-01-2020,03:00,0.84424,R,ugm-3,5.90686,R,ugm-3,7.20134,R,ugm-3,4.000,R,ugm-3 (BAM)
02-01-2020,04:00,2.14578,R,ugm-3,6.67693,R,ugm-3,9.96707,R,ugm-3,7.000,R,ugm-3 (BAM)
02-01-2020,05:00,1.79401,R,ugm-3,7.16411,R,ugm-3,9.91489,R,ugm-3,6.000,R,ugm-3 (BAM)
02-01-2020,06:00,4.99509,R,ugm-3,13.11005,R,ugm-3,20.76908,R,ugm-3,6.000,R,ugm-3 (BAM)
02-01-2020,07:00,12.27666,R,ugm-3,22.40111,R,ugm-3,41.22505,R,ugm-3,8.000,R,ugm-3 (BAM)
02-01-2020,08:00,23.32213,R,ugm-3,32.70480,R,ugm-3,68.46490,R,ugm-3,7.000,R,ugm-3 (BAM)
02-01-2020,09:00,28.17651,R,ugm-3,35.43733,R,ugm-3,78.64070,R,ugm-3,6.000,R,ugm-3 (BAM)
02-01-2020,10:00,20.68388,R,ugm-3,31.84480,R,ugm-3,63.55964,R,ugm-3,5.000,R,ugm-3 (BAM)
02-01-2020,11:00,14.17620,R,ugm-3,19.64508,R,ugm-3,41.38160,R,ugm-3,5.000,R,ugm-3 (BAM)
02-01-2020,12:00,15.86468,R,ugm-3,25.30112,R,ugm-3,49.62662,R,ugm-3,,,
02-01-2020,13:00,,,,,,,,,,,,
02-01-2020,14:00,22.93518,R,ugm-3,31.68042,R,ugm-3,66.84721,R,ugm-3,-1.000,R,ugm-3 (BAM)
02-01-2020,15:00,22.09094,R,ugm-3,25.93011,R,ugm-3,59.80242,R,ugm-3,2.000,R,ugm-3 (BAM)
02-01-2020,16:00,23.77942,R,ugm-3,45.31045,R,ugm-3,81.77172,R,ugm-3,3.000,R,ugm-3 (BAM)
02-01-2020,17:00,26.59356,R,ugm-3,49.81453,R,ugm-3,90.59075,R,ugm-3,13.000,R,ugm-3 (BAM)
02-01-2020,18:00,37.07620,R,ugm-3,53.93642,R,ugm-3,110.78581,R,ugm-3,5.000,R,ugm-3 (BAM)
02-01-2020,19:00,27.22674,R,ugm-3,35.11938,R,ugm-3,76.86646,R,ugm-3,11.000,R,ugm-3 (BAM)
02-01-2020,20:00,13.36713,R,ugm-3,16.91967,R,ugm-3,37.41565,R,ugm-3,5.000,R,ugm-3 (BAM)
02-01-2020,21:00,15.72397,R,ugm-3,24.42101,R,ugm-3,48.53076,R,ugm-3,3.000,R,ugm-3 (BAM)
02-01-2020,22:00,12.83948,R,ugm-3,24.46041,R,ugm-3,44.14734,R,ugm-3,4.000,R,ugm-3 (BAM)
02-01-2020,23:00,14.10584,R,ugm-3,22.10121,R,ugm-3,43.72987,R,ugm-3,3.000,R,ugm-3 (BAM)
02-01-2020,24:00,9.88464,R,ugm-3,16.78013,R,ugm-3,31.93637,R,ugm-3,2.000,R,ugm-3 (BAM)
03-01-2020,01:00,11.53561,R,ugm-3,9.68578,R,ugm-3,27.37346,R,ugm-3,-1.000,R,ugm-3 (BAM)
03-01-2020,02:00,4.87684,R,ugm-3,18.92061,R,ugm-3,26.39833,R,ugm-3,2.000,R,ugm-3 (BAM)
03-01-2020,03:00,4.92373,R,ugm-3,13.60735,R,ugm-3,21.15697,R,ugm-3,2.000,R,ugm-3 (BAM)
03-01-2020,04:00,4.29068,R,ugm-3,11.75709,R,ugm-3,18.33604,R,ugm-3,3.000,R,ugm-3 (BAM)
03-01-2020,05:00,6.11950,R,ugm-3,18.61724,R,ugm-3,28.00034,R,ugm-3,4.000,R,ugm-3 (BAM)
03-01-2020,06:00,4.00933,R,ugm-3,6.91231,R,ugm-3,13.05986,R,ugm-3,2.000,R,ugm-3 (BAM)
03-01-2020,07:00,10.19917,R,ugm-3,10.48122,R,ugm-3,26.11972,R,ugm-3,1.000,R,ugm-3 (BAM)
03-01-2020,08:00,17.54960,R,ugm-3,19.16617,R,ugm-3,46.07518,R,ugm-3,3.000,R,ugm-3 (BAM)
03-01-2020,09:00,15.89663,R,ugm-3,21.33501,R,ugm-3,45.70950,R,ugm-3,2.000,R,ugm-3 (BAM)
03-01-2020,10:00,20.64452,R,ugm-3,26.74920,R,ugm-3,58.40369,R,ugm-3,3.000,R,ugm-3 (BAM)
03-01-2020,11:00,23.28223,R,ugm-3,23.80179,R,ugm-3,59.50071,R,ugm-3,2.000,R,ugm-3 (BAM)
03-01-2020,12:00,21.59409,R,ugm-3,29.47236,R,ugm-3,62.58284,R,ugm-3,7.000,R,ugm-3 (BAM)
03-01-2020,13:00,24.90003,R,ugm-3,42.58265,R,ugm-3,80.76216,R,ugm-3,9.000,R,ugm-3 (BAM)
03-01-2020,14:00,19.94112,R,ugm-3,29.76058,R,ugm-3,60.33655,R,ugm-3,12.000,R,ugm-3 (BAM)
03-01-2020,15:00,28.59283,R,ugm-3,27.51734,R,ugm-3,71.35907,R,ugm-3,7.000,R,ugm-3 (BAM)
03-01-2020,16:00,26.79918,R,ugm-3,42.23039,R,ugm-3,83.32190,R,ugm-3,6.000,R,ugm-3 (BAM)
03-01-2020,17:00,26.86952,R,ugm-3,36.84635,R,ugm-3,78.04571,R,ugm-3,3.000,R,ugm-3 (BAM)
03-01-2020,18:00,28.06529,R,ugm-3,32.03523,R,ugm-3,75.06807,R,ugm-3,5.000,R,ugm-3 (BAM)
03-01-2020,19:00,23.10638,R,ugm-3,34.25811,R,ugm-3,69.68740,R,ugm-3,7.000,R,ugm-3 (BAM)
03-01-2020,20:00,26.51783,R,ugm-3,33.93781,R,ugm-3,74.59791,R,ugm-3,6.000,R,ugm-3 (BAM)
03-01-2020,21:00,15.08773,R,ugm-3,21.26932,R,ugm-3,44.40352,R,ugm-3,3.000,R,ugm-3 (BAM)
03-01-2020,22:00,18.04197,R,ugm-3,26.82176,R,ugm-3,54.48573,R,ugm-3,8.000,R,ugm-3 (BAM)
03-01-2020,23:00,13.82163,R,ugm-3,19.50165,R,ugm-3,40.69452,R,ugm-3,8.000,R,ugm-3 (BAM)
03-01-2020,24:00,7.73730,R,ugm-3,15.61425,R,ugm-3,27.47794,R,ugm-3,9.000,R,ugm-3 (BAM)
04-01-2020,01:00,7.17313,R,ugm-3,18.14724,R,ugm-3,29.14589,R,ugm-3,7.000,R,ugm-3 (BAM)
04-01-2020,02:00,5.48534,R,ugm-3,14.11109,R,ugm-3,22.52182,R,ugm-3,5.000,R,ugm-3 (BAM)
04-01-2020,03:00,3.27010,R,ugm-3,11.30203,R,ugm-3,16.31612,R,ugm-3,6.000,R,ugm-3 (BAM)
04-01-2020,04:00,2.21523,R,ugm-3,7.11471,R,ugm-3,10.51135,R,ugm-3,3.000,R,ugm-3 (BAM)
04-01-2020,05:00,1.05487,R,ugm-3,4.76257,R,ugm-3,6.38002,R,ugm-3,4.000,R,ugm-3 (BAM)
04-01-2020,06:00,6.39956,R,ugm-3,10.47804,R,ugm-3,20.29056,R,ugm-3,2.000,R,ugm-3 (BAM)
04-01-2020,07:00,7.91154,R,ugm-3,12.81398,R,ugm-3,24.94484,R,ugm-3,1.000,R,ugm-3 (BAM)
04-01-2020,08:00,9.81031,R,ugm-3,15.70735,R,ugm-3,30.74961,R,ugm-3,1.000,R,ugm-3 (BAM)
04-01-2020,09:00,12.34200,R,ugm-3,20.71566,R,ugm-3,39.63980,R,ugm-3,-1.000,R,ugm-3 (BAM)
04-01-2020,10:00,22.57426,R,ugm-3,30.54650,R,ugm-3,65.15989,R,ugm-3,-1.000,R,ugm-3 (BAM)
04-01-2020,11:00,22.78524,R,ugm-3,29.80465,R,ugm-3,64.74152,R,ugm-3,1.000,R,ugm-3 (BAM)
04-01-2020,12:00,21.20293,R,ugm-3,26.47834,R,ugm-3,58.98905,R,ugm-3,2.000,R,ugm-3 (BAM)
04-01-2020,13:00,19.19867,R,ugm-3,23.32836,R,ugm-3,52.76591,R,ugm-3,2.000,R,ugm-3 (BAM)
04-01-2020,14:00,19.02286,R,ugm-3,22.81351,R,ugm-3,51.98148,R,ugm-3,-1.000,R,ugm-3 (BAM)
04-01-2020,15:00,20.60517,R,ugm-3,24.62325,R,ugm-3,56.21740,R,ugm-3,1.000,R,ugm-3 (BAM)
04-01-2020,16:00,23.94559,R,ugm-3,33.77794,R,ugm-3,70.49400,R,ugm-3,3.000,R,ugm-3 (BAM)
04-01-2020,17:00,31.01324,R,ugm-3,47.62440,R,ugm-3,95.17736,R,ugm-3,1.000,R,ugm-3 (BAM)
04-01-2020,18:00,45.57047,R,ugm-3,58.45881,R,ugm-3,128.33255,R,ugm-3,4.000,R,ugm-3 (BAM)
04-01-2020,19:00,38.32702,R,ugm-3,53.98130,R,ugm-3,112.74857,R,ugm-3,5.000,R,ugm-3 (BAM)
04-01-2020,20:00,24.12141,R,ugm-3,38.31953,R,ugm-3,75.30517,R,ugm-3,2.000,R,ugm-3 (BAM)
04-01-2020,21:00,49.68447,R,ugm-3,62.76670,R,ugm-3,138.94849,R,ugm-3,9.000,R,ugm-3 (BAM)
04-01-2020,22:00,17.12409,R,ugm-3,33.98756,R,ugm-3,60.24413,R,ugm-3,4.000,R,ugm-3 (BAM)
04-01-2020,23:00,12.09587,R,ugm-3,27.31620,R,ugm-3,45.86294,R,ugm-3,13.000,R,ugm-3 (BAM)
04-01-2020,24:00,14.38142,R,ugm-3,23.96862,R,ugm-3,46.01982,R,ugm-3,4.000,R,ugm-3 (BAM)
05-01-2020,01:00,8.99975,R,ugm-3,23.12554,R,ugm-3,36.92496,R,ugm-3,1.000,R,ugm-3 (BAM)
05-01-2020,02:00,3.89052,R,ugm-3,12.46220,R,ugm-3,18.42758,R,ugm-3,9.000,R,ugm-3 (BAM)
05-01-2020,03:00,6.36310,R,ugm-3,18.51296,R,ugm-3,28.26958,R,ugm-3,7.000,R,ugm-3 (BAM)
05-01-2020,04:00,8.78882,R,ugm-3,22.17508,R,ugm-3,35.65108,R,ugm-3,2.000,R,ugm-3 (BAM)
05-01-2020,05:00,8.89428,R,ugm-3,24.00271,R,ugm-3,37.64042,R,ugm-3,0.000,R,ugm-3 (BAM)
05-01-2020,06:00,4.74596,R,ugm-3,13.87280,R,ugm-3,21.14984,R,ugm-3,0.000,R,ugm-3 (BAM)
05-01-2020,07:00,5.80062,R,ugm-3,17.64784,R,ugm-3,26.54199,R,ugm-3,0.000,R,ugm-3 (BAM)
05-01-2020,08:00,5.34360,R,ugm-3,17.92978,R,ugm-3,26.12319,R,ugm-3,-1.000,R,ugm-3 (BAM)
05-01-2020,09:00,10.15987,R,ugm-3,21.01515,R,ugm-3,36.59340,R,ugm-3,0.000,R,ugm-3 (BAM)
05-01-2020,10:00,12.37465,R,ugm-3,22.06904,R,ugm-3,41.04324,R,ugm-3,0.000,R,ugm-3 (BAM)
05-01-2020,11:00,11.24969,R,ugm-3,25.36450,R,ugm-3,42.61377,R,ugm-3,-1.000,R,ugm-3 (BAM)
05-01-2020,12:00,13.71056,R,ugm-3,22.63824,R,ugm-3,43.66080,R,ugm-3,1.000,R,ugm-3 (BAM)
05-01-2020,13:00,18.59714,R,ugm-3,29.90859,R,ugm-3,58.42380,R,ugm-3,3.000,R,ugm-3 (BAM)
05-01-2020,14:00,16.83937,R,ugm-3,25.53639,R,ugm-3,51.35641,R,ugm-3,5.000,R,ugm-3 (BAM)
05-01-2020,15:00,20.14397,R,ugm-3,27.17035,R,ugm-3,58.05734,R,ugm-3,5.000,R,ugm-3 (BAM)
05-01-2020,16:00,20.67130,R,ugm-3,38.92605,R,ugm-3,70.62160,R,ugm-3,3.000,R,ugm-3 (BAM)
05-01-2020,17:00,16.55813,R,ugm-3,34.91966,R,ugm-3,60.30844,R,ugm-3,1.000,R,ugm-3 (BAM)
05-01-2020,18:00,18.21043,R,ugm-3,33.74730,R,ugm-3,61.66957,R,ugm-3,6.000,R,ugm-3 (BAM)
05-01-2020,19:00,26.92894,R,ugm-3,36.45089,R,ugm-3,77.74134,R,ugm-3,6.000,R,ugm-3 (BAM)
05-01-2020,20:00,22.63999,R,ugm-3,30.88173,R,ugm-3,65.59590,R,ugm-3,11.000,R,ugm-3 (BAM)
05-01-2020,21:00,17.57763,R,ugm-3,29.84892,R,ugm-3,56.80092,R,ugm-3,4.000,R,ugm-3 (BAM)
05-01-2020,22:00,13.42931,R,ugm-3,23.95944,R,ugm-3,44.55076,R,ugm-3,0.000,R,ugm-3 (BAM)
05-01-2020,23:00,12.76136,R,ugm-3,20.27202,R,ugm-3,39.83917,R,ugm-3,2.000,R,ugm-3 (BAM)
05-01-2020,24:00,8.61304,R,ugm-3,15.74367,R,ugm-3,28.95014,R,ugm-3,2.000,R,ugm-3 (BAM)
06-01-2020,01:00,3.37422,R,ugm-3,9.57007,R,ugm-3,14.74381,R,ugm-3,0.000,R,ugm-3 (BAM)
06-01-2020,02:00,2.43694,R,ugm-3,4.50877,R,ugm-3,8.24535,R,ugm-3,0.000,R,ugm-3 (BAM)
06-01-2020,03:00,1.23019,R,ugm-3,3.14480,R,ugm-3,5.03106,R,ugm-3,1.000,R,ugm-3 (BAM)
06-01-2020,04:00,1.75741,R,ugm-3,4.06584,R,ugm-3,6.76049,R,ugm-3,0.000,R,ugm-3 (BAM)
06-01-2020,05:00,1.61681,R,ugm-3,3.49531,R,ugm-3,5.97439,R,ugm-3,2.000,R,ugm-3 (BAM)
06-01-2020,06:00,5.55341,R,ugm-3,10.61341,R,ugm-3,19.12852,R,ugm-3,2.000,R,ugm-3 (BAM)
06-01-2020,07:00,13.25085,R,ugm-3,17.41528,R,ugm-3,37.73297,R,ugm-3,4.000,R,ugm-3 (BAM)
06-01-2020,08:00,17.53892,R,ugm-3,22.26503,R,ugm-3,49.15767,R,ugm-3,4.000,R,ugm-3 (BAM)
06-01-2020,09:00,27.55614,R,ugm-3,48.46418,R,ugm-3,90.71634,R,ugm-3,3.000,R,ugm-3 (BAM)
06-01-2020,10:00,15.43003,R,ugm-3,24.08363,R,ugm-3,47.74268,R,ugm-3,1.000,R,ugm-3 (BAM)
06-01-2020,11:00,15.99240,R,ugm-3,30.61071,R,ugm-3,55.13205,R,ugm-3,1.000,R,ugm-3 (BAM)
06-01-2020,12:00,17.18744,R,ugm-3,32.55165,R,ugm-3,58.90535,R,ugm-3,4.000,R,ugm-3 (BAM)
06-01-2020,13:00,20.31562,R,ugm-3,32.52419,R,ugm-3,63.67438,R,ugm-3,4.000,R,ugm-3 (BAM)
06-01-2020,14:00,20.70225,R,ugm-3,32.61266,R,ugm-3,64.35567,R,ugm-3,4.000,R,ugm-3 (BAM)
06-01-2020,15:00,18.59336,R,ugm-3,32.49220,R,ugm-3,61.00163,R,ugm-3,3.000,R,ugm-3 (BAM)
06-01-2020,16:00,19.40177,R,ugm-3,29.31360,R,ugm-3,59.06257,R,ugm-3,6.000,R,ugm-3 (BAM)
06-01-2020,17:00,31.28184,R,ugm-3,48.93553,R,ugm-3,96.90035,R,ugm-3,4.000,R,ugm-3 (BAM)
06-01-2020,18:00,34.44517,R,ugm-3,50.58361,R,ugm-3,103.39880,R,ugm-3,4.000,R,ugm-3 (BAM)
06-01-2020,19:00,35.99169,R,ugm-3,38.83148,R,ugm-3,94.01797,R,ugm-3,4.000,R,ugm-3 (BAM)
06-01-2020,20:00,27.69673,R,ugm-3,39.18221,R,ugm-3,81.64994,R,ugm-3,6.000,R,ugm-3 (BAM)
06-01-2020,21:00,18.20674,R,ugm-3,28.63044,R,ugm-3,56.54704,R,ugm-3,3.000,R,ugm-3 (BAM)
06-01-2020,22:00,17.43348,R,ugm-3,33.64179,R,ugm-3,60.37274,R,ugm-3,3.000,R,ugm-3 (BAM)
06-01-2020,23:00,13.56718,R,ugm-3,27.20200,R,ugm-3,48.00472,R,ugm-3,9.000,R,ugm-3 (BAM)
06-01-2020,24:00,23.68984,R,ugm-3,38.46072,R,ugm-3,74.78464,R,ugm-3,6.000,R,ugm-3 (BAM)
07-01-2020,01:00,23.47419,R,ugm-3,41.86141,R,ugm-3,77.85467,R,ugm-3,3.000,R,ugm-3 (BAM)
07-01-2020,02:00,9.18352,R,ugm-3,24.67127,R,ugm-3,38.75246,R,ugm-3,1.000,R,ugm-3 (BAM)
07-01-2020,03:00,14.58352,R,ugm-3,40.75157,R,ugm-3,63.11265,R,ugm-3,8.000,R,ugm-3 (BAM)
07-01-2020,04:00,6.43080,R,ugm-3,27.75534,R,ugm-3,37.61577,R,ugm-3,6.000,R,ugm-3 (BAM)
07-01-2020,05:00,8.96096,R,ugm-3,28.07284,R,ugm-3,41.81279,R,ugm-3,4.000,R,ugm-3 (BAM)
07-01-2020,06:00,11.77224,R,ugm-3,23.34257,R,ugm-3,41.39308,R,ugm-3,4.000,R,ugm-3 (BAM)
07-01-2020,07:00,32.22430,R,ugm-3,31.54007,R,ugm-3,80.94997,R,ugm-3,5.000,R,ugm-3 (BAM)
07-01-2020,08:00,28.46421,R,ugm-3,43.12881,R,ugm-3,86.77333,R,ugm-3,4.000,R,ugm-3 (BAM)
07-01-2020,09:00,48.49459,R,ugm-3,55.27804,R,ugm-3,129.63537,R,ugm-3,8.000,R,ugm-3 (BAM)
07-01-2020,10:00,28.81562,R,ugm-3,40.07178,R,ugm-3,84.25512,R,ugm-3,4.000,R,ugm-3 (BAM)
07-01-2020,11:00,27.58569,R,ugm-3,41.43303,R,ugm-3,83.73050,R,ugm-3,2.000,R,ugm-3 (BAM)
07-01-2020,12:00,26.32061,R,ugm-3,30.46696,R,ugm-3,70.82467,R,ugm-3,6.000,R,ugm-3 (BAM)
07-01-2020,13:00,22.77137,R,ugm-3,43.88338,R,ugm-3,78.79900,R,ugm-3,6.000,R,ugm-3 (BAM)
07-01-2020,14:00,25.05554,R,ugm-3,36.76112,R,ugm-3,75.17907,R,ugm-3,5.000,R,ugm-3 (BAM)
07-01-2020,15:00,29.58873,R,ugm-3,44.97205,R,ugm-3,90.34080,R,ugm-3,9.000,R,ugm-3 (BAM)
07-01-2020,16:00,22.56053,R,ugm-3,44.67884,R,ugm-3,79.27116,R,ugm-3,9.000,R,ugm-3 (BAM)
07-01-2020,17:00,27.33970,R,ugm-3,41.49543,R,ugm-3,83.41572,R,ugm-3,8.000,R,ugm-3 (BAM)
07-01-2020,18:00,27.65597,R,ugm-3,36.76101,R,ugm-3,79.16624,R,ugm-3,5.000,R,ugm-3 (BAM)
07-01-2020,19:00,14.72408,R,ugm-3,21.33468,R,ugm-3,43.91129,R,ugm-3,2.000,R,ugm-3 (BAM)
07-01-2020,20:00,12.19393,R,ugm-3,18.91867,R,ugm-3,37.61577,R,ugm-3,4.000,R,ugm-3 (BAM)
07-01-2020,21:00,8.46898,R,ugm-3,16.49846,R,ugm-3,29.48405,R,ugm-3,0.000,R,ugm-3 (BAM)
07-01-2020,22:00,10.05033,R,ugm-3,14.02130,R,ugm-3,29.43158,R,ugm-3,-2.000,R,ugm-3 (BAM)
07-01-2020,23:00,4.39263,R,ugm-3,7.58706,R,ugm-3,14.32232,R,ugm-3,0.000,R,ugm-3 (BAM)
07-01-2020,24:00,3.40868,R,ugm-3,6.05292,R,ugm-3,11.27948,R,ugm-3,-1.000,R,ugm-3 (BAM)
08-01-2020,01:00,5.01243,R,ugm-3,7.01957,R,ugm-3,14.70519,R,ugm-3,-1.000,R,ugm-3 (BAM)
08-01-2020,02:00,1.54589,R,ugm-3,5.96261,R,ugm-3,8.33294,R,ugm-3,1.000,R,ugm-3 (BAM)
08-01-2020,03:00,0.84321,R,ugm-3,3.59132,R,ugm-3,4.88423,R,ugm-3,4.000,R,ugm-3 (BAM)
08-01-2020,04:00,2.35397,R,ugm-3,7.31449,R,ugm-3,10.92386,R,ugm-3,6.000,R,ugm-3 (BAM)
08-01-2020,05:00,2.56477,R,ugm-3,9.30208,R,ugm-3,13.23467,R,ugm-3,7.000,R,ugm-3 (BAM)
08-01-2020,06:00,6.64030,R,ugm-3,12.45384,R,ugm-3,22.63549,R,ugm-3,5.000,R,ugm-3 (BAM)
08-01-2020,07:00,24.98018,R,ugm-3,23.30183,R,ugm-3,61.60424,R,ugm-3,6.000,R,ugm-3 (BAM)
08-01-2020,08:00,30.98808,R,ugm-3,42.97505,R,ugm-3,90.48944,R,ugm-3,8.000,R,ugm-3 (BAM)
08-01-2020,09:00,51.01438,R,ugm-3,73.92524,R,ugm-3,152.14620,R,ugm-3,6.000,R,ugm-3 (BAM)
08-01-2020,10:00,61.73021,R,ugm-3,69.57379,R,ugm-3,164.22546,R,ugm-3,11.000,R,ugm-3 (BAM)
08-01-2020,11:00,49.67930,R,ugm-3,44.51374,R,ugm-3,120.68760,R,ugm-3,6.000,R,ugm-3 (BAM)
08-01-2020,12:00,34.04472,R,ugm-3,51.62797,R,ugm-3,103.82915,R,ugm-3,15.000,R,ugm-3 (BAM)
08-01-2020,13:00,37.62838,R,ugm-3,42.19422,R,ugm-3,99.89026,R,ugm-3,7.000,R,ugm-3 (BAM)
08-01-2020,14:00,38.54186,R,ugm-3,50.87712,R,ugm-3,109.97381,R,ugm-3,12.000,R,ugm-3 (BAM)
08-01-2020,15:00,51.64679,R,ugm-3,70.06704,R,ugm-3,149.25768,R,ugm-3,10.000,R,ugm-3 (BAM)
08-01-2020,16:00,76.09997,R,ugm-3,85.30130,R,ugm-3,201.98629,R,ugm-3,10.000,R,ugm-3 (BAM)
08-01-2020,17:00,67.52730,R,ugm-3,77.17586,R,ugm-3,180.71628,R,ugm-3,12.000,R,ugm-3 (BAM)
08-01-2020,18:00,83.26728,R,ugm-3,83.55484,R,ugm-3,211.22955,R,ugm-3,12.000,R,ugm-3 (BAM)
08-01-2020,19:00,90.50486,R,ugm-3,85.58701,R,ugm-3,224.35919,R,ugm-3,17.000,R,ugm-3 (BAM)
08-01-2020,20:00,62.25722,R,ugm-3,79.16439,R,ugm-3,174.62413,R,ugm-3,16.000,R,ugm-3 (BAM)
08-01-2020,21:00,67.07056,R,ugm-3,74.67256,R,ugm-3,177.51265,R,ugm-3,17.000,R,ugm-3 (BAM)
08-01-2020,22:00,69.24886,R,ugm-3,69.12677,R,ugm-3,175.30687,R,ugm-3,18.000,R,ugm-3 (BAM)
08-01-2020,23:00,21.85327,R,ugm-3,50.73186,R,ugm-3,84.23973,R,ugm-3,9.000,R,ugm-3 (BAM)
08-01-2020,24:00,18.79662,R,ugm-3,34.83138,R,ugm-3,63.65247,R,ugm-3,2.000,R,ugm-3 (BAM)
09-01-2020,01:00,15.73678,R,ugm-3,34.47349,R,ugm-3,58.60288,R,ugm-3,4.000,R,ugm-3 (BAM)
09-01-2020,02:00,7.21269,R,ugm-3,14.94748,R,ugm-3,26.00678,R,ugm-3,2.000,R,ugm-3 (BAM)
09-01-2020,03:00,3.51267,R,ugm-3,16.95808,R,ugm-3,22.34410,R,ugm-3,2.000,R,ugm-3 (BAM)
09-01-2020,04:00,3.82881,R,ugm-3,16.31561,R,ugm-3,22.18638,R,ugm-3,2.000,R,ugm-3 (BAM)
09-01-2020,05:00,11.41619,R,ugm-3,24.97550,R,ugm-3,42.48008,R,ugm-3,0.000,R,ugm-3 (BAM)
09-01-2020,06:00,27.67987,R,ugm-3,46.72423,R,ugm-3,89.16611,R,ugm-3,-1.000,R,ugm-3 (BAM)
09-01-2020,07:00,50.05561,R,ugm-3,55.42108,R,ugm-3,132.17193,R,ugm-3,7.000,R,ugm-3 (BAM)
09-01-2020,08:00,24.86973,R,ugm-3,43.88294,R,ugm-3,82.01600,R,ugm-3,4.000,R,ugm-3 (BAM)
09-01-2020,09:00,20.61940,R,ugm-3,29.21256,R,ugm-3,60.82853,R,ugm-3,4.000,R,ugm-3 (BAM)
09-01-2020,10:00,12.04847,R,ugm-3,27.58107,R,ugm-3,46.05514,R,ugm-3,1.000,R,ugm-3 (BAM)
09-01-2020,11:00,16.89596,R,ugm-3,23.30282,R,ugm-3,49.20960,R,ugm-3,0.000,R,ugm-3 (BAM)
09-01-2020,12:00,20.40864,R,ugm-3,22.54334,R,ugm-3,53.83614,R,ugm-3,1.000,R,ugm-3 (BAM)
09-01-2020,13:00,25.95866,R,ugm-3,36.48267,R,ugm-3,76.28539,R,ugm-3,3.000,R,ugm-3 (BAM)
09-01-2020,14:00,36.35618,R,ugm-3,36.94323,R,ugm-3,92.68859,R,ugm-3,3.000,R,ugm-3 (BAM)
09-01-2020,15:00,46.08628,R,ugm-3,49.09974,R,ugm-3,119.76439,R,ugm-3,6.000,R,ugm-3 (BAM)
09-01-2020,16:00,57.39709,R,ugm-3,53.31222,R,ugm-3,141.31987,R,ugm-3,4.000,R,ugm-3 (BAM)
09-01-2020,17:00,78.85953,R,ugm-3,67.45766,R,ugm-3,188.37392,R,ugm-3,7.000,R,ugm-3 (BAM)
09-01-2020,18:00,87.00894,R,ugm-3,75.67638,R,ugm-3,209.08822,R,ugm-3,8.000,R,ugm-3 (BAM)
09-01-2020,19:00,71.34241,R,ugm-3,64.73610,R,ugm-3,174.12627,R,ugm-3,13.000,R,ugm-3 (BAM)
09-01-2020,20:00,27.01246,R,ugm-3,43.43648,R,ugm-3,84.85501,R,ugm-3,7.000,R,ugm-3 (BAM)
09-01-2020,21:00,40.18499,R,ugm-3,42.48110,R,ugm-3,104.09723,R,ugm-3,13.000,R,ugm-3 (BAM)
09-01-2020,22:00,20.02224,R,ugm-3,38.06692,R,ugm-3,68.76726,R,ugm-3,10.000,R,ugm-3 (BAM)
09-01-2020,23:00,13.48867,R,ugm-3,23.90072,R,ugm-3,44.58305,R,ugm-3,6.000,R,ugm-3 (BAM)
09-01-2020,24:00,7.48200,R,ugm-3,19.33634,R,ugm-3,30.80857,R,ugm-3,4.000,R,ugm-3 (BAM)
10-01-2020,01:00,8.85014,R,ugm-3,14.00819,R,ugm-3,27.57821,R,ugm-3,4.000,R,ugm-3 (BAM)
10-01-2020,02:00,3.09053,R,ugm-3,3.33122,R,ugm-3,8.06996,R,ugm-3,0.000,R,ugm-3 (BAM)
10-01-2020,03:00,2.38813,R,ugm-3,4.49592,R,ugm-3,8.15768,R,ugm-3,-2.000,R,ugm-3 (BAM)
10-01-2020,04:00,2.10718,R,ugm-3,5.08461,R,ugm-3,8.31557,R,ugm-3,0.000,R,ugm-3 (BAM)
10-01-2020,05:00,1.75598,R,ugm-3,4.57050,R,ugm-3,7.26297,R,ugm-3,0.000,R,ugm-3 (BAM)
10-01-2020,06:00,13.06450,R,ugm-3,17.75652,R,ugm-3,37.78847,R,ugm-3,0.000,R,ugm-3 (BAM)
10-01-2020,07:00,61.98611,R,ugm-3,60.21498,R,ugm-3,155.25902,R,ugm-3,-1.000,R,ugm-3 (BAM)
10-01-2020,08:00,102.26830,R,ugm-3,87.13167,R,ugm-3,243.94087,R,ugm-3,7.000,R,ugm-3 (BAM)
10-01-2020,09:00,149.78513,R,ugm-3,97.79763,R,ugm-3,327.46497,R,ugm-3,11.000,R,ugm-3 (BAM)
10-01-2020,10:00,91.31098,R,ugm-3,70.56512,R,ugm-3,210.57334,R,ugm-3,11.000,R,ugm-3 (BAM)
10-01-2020,11:00,55.59434,R,ugm-3,57.80536,R,ugm-3,143.04882,R,ugm-3,7.000,R,ugm-3 (BAM)
10-01-2020,12:00,40.17683,R,ugm-3,51.81442,R,ugm-3,113.41803,R,ugm-3,2.000,R,ugm-3 (BAM)
10-01-2020,13:00,54.18956,R,ugm-3,55.90680,R,ugm-3,138.99630,R,ugm-3,3.000,R,ugm-3 (BAM)
10-01-2020,14:00,39.54468,R,ugm-3,55.25732,R,ugm-3,115.89165,R,ugm-3,8.000,R,ugm-3 (BAM)
10-01-2020,15:00,53.06573,R,ugm-3,63.36667,R,ugm-3,144.73299,R,ugm-3,12.000,R,ugm-3 (BAM)
10-01-2020,16:00,34.20650,R,ugm-3,52.91638,R,ugm-3,105.36562,R,ugm-3,8.000,R,ugm-3 (BAM)
10-01-2020,17:00,101.39031,R,ugm-3,90.47785,R,ugm-3,245.94082,R,ugm-3,13.000,R,ugm-3 (BAM)
10-01-2020,18:00,44.03999,R,ugm-3,62.78528,R,ugm-3,130.31232,R,ugm-3,7.000,R,ugm-3 (BAM)
10-01-2020,19:00,41.96793,R,ugm-3,57.12052,R,ugm-3,121.47045,R,ugm-3,8.000,R,ugm-3 (BAM)
10-01-2020,20:00,28.06057,R,ugm-3,36.81438,R,ugm-3,79.83998,R,ugm-3,9.000,R,ugm-3 (BAM)
10-01-2020,21:00,17.41933,R,ugm-3,26.49985,R,ugm-3,53.20911,R,ugm-3,4.000,R,ugm-3 (BAM)
10-01-2020,22:00,9.83349,R,ugm-3,22.71066,R,ugm-3,37.78847,R,ugm-3,4.000,R,ugm-3 (BAM)
10-01-2020,23:00,10.00909,R,ugm-3,21.91511,R,ugm-3,37.26217,R,ugm-3,2.000,R,ugm-3 (BAM)
10-01-2020,24:00,5.47866,R,ugm-3,16.80936,R,ugm-3,25.20986,R,ugm-3,3.000,R,ugm-3 (BAM)
11-01-2020,01:00,5.94571,R,ugm-3,16.10240,R,ugm-3,25.21903,R,ugm-3,2.000,R,ugm-3 (BAM)
11-01-2020,02:00,2.43447,R,ugm-3,7.85813,R,ugm-3,11.59092,R,ugm-3,-1.000,R,ugm-3 (BAM)
11-01-2020,03:00,1.33427,R,ugm-3,4.48721,R,ugm-3,6.53306,R,ugm-3,1.000,R,ugm-3 (BAM)
11-01-2020,04:00,1.68540,R,ugm-3,4.26494,R,ugm-3,6.84918,R,ugm-3,1.000,R,ugm-3 (BAM)
11-01-2020,05:00,1.40450,R,ugm-3,3.53655,R,ugm-3,5.69009,R,ugm-3,-2.000,R,ugm-3 (BAM)
11-01-2020,06:00,3.16012,R,ugm-3,6.85084,R,ugm-3,11.69629,R,ugm-3,-2.000,R,ugm-3 (BAM)
11-01-2020,07:00,6.21491,R,ugm-3,10.01711,R,ugm-3,19.54651,R,ugm-3,-1.000,R,ugm-3 (BAM)
11-01-2020,08:00,10.11239,R,ugm-3,12.89230,R,ugm-3,28.39775,R,ugm-3,-2.000,R,ugm-3 (BAM)
11-01-2020,09:00,11.65734,R,ugm-3,19.37466,R,ugm-3,37.24900,R,ugm-3,0.000,R,ugm-3 (BAM)
11-01-2020,10:00,8.35677,R,ugm-3,18.90344,R,ugm-3,31.71697,R,ugm-3,4.000,R,ugm-3 (BAM)
11-01-2020,11:00,12.95651,R,ugm-3,22.91467,R,ugm-3,42.78103,R,ugm-3,2.000,R,ugm-3 (BAM)
11-01-2020,12:00,12.04358,R,ugm-3,17.04380,R,ugm-3,35.51036,R,ugm-3,3.000,R,ugm-3 (BAM)
11-01-2020,13:00,12.50004,R,ugm-3,12.18171,R,ugm-3,31.34817,R,ugm-3,-2.000,R,ugm-3 (BAM)
11-01-2020,14:00,18.18826,R,ugm-3,21.84730,R,ugm-3,49.73558,R,ugm-3,-1.000,R,ugm-3 (BAM)
11-01-2020,15:00,13.13207,R,ugm-3,18.21985,R,ugm-3,38.35541,R,ugm-3,1.000,R,ugm-3 (BAM)
11-01-2020,16:00,13.58853,R,ugm-3,19.04785,R,ugm-3,39.88330,R,ugm-3,2.000,R,ugm-3 (BAM)
11-01-2020,17:00,11.62223,R,ugm-3,17.16300,R,ugm-3,34.98350,R,ugm-3,3.000,R,ugm-3 (BAM)
11-01-2020,18:00,12.99162,R,ugm-3,16.43314,R,ugm-3,36.35334,R,ugm-3,4.000,R,ugm-3 (BAM)
11-01-2020,19:00,14.53657,R,ugm-3,19.85971,R,ugm-3,42.14880,R,ugm-3,4.000,R,ugm-3 (BAM)
11-01-2020,20:00,11.02532,R,ugm-3,19.29003,R,ugm-3,36.19528,R,ugm-3,2.000,R,ugm-3 (BAM)
11-01-2020,21:00,23.20935,R,ugm-3,38.59472,R,ugm-3,74.18189,R,ugm-3,0.000,R,ugm-3 (BAM)
11-01-2020,22:00,31.56612,R,ugm-3,58.55187,R,ugm-3,106.95258,R,ugm-3,1.000,R,ugm-3 (BAM)
11-01-2020,23:00,17.09978,R,ugm-3,46.69813,R,ugm-3,72.91742,R,ugm-3,1.000,R,ugm-3 (BAM)
11-01-2020,24:00,45.99735,R,ugm-3,63.24147,R,ugm-3,133.76975,R,ugm-3,7.000,R,ugm-3 (BAM)
12-01-2020,01:00,41.75196,R,ugm-3,58.55321,R,ugm-3,122.57199,R,ugm-3,3.000,R,ugm-3 (BAM)
12-01-2020,02:00,15.96123,R,ugm-3,39.94180,R,ugm-3,64.41534,R,ugm-3,3.000,R,ugm-3 (BAM)
12-01-2020,03:00,19.16752,R,ugm-3,42.02264,R,ugm-3,71.41242,R,ugm-3,5.000,R,ugm-3 (BAM)
12-01-2020,04:00,14.53361,R,ugm-3,35.78418,R,ugm-3,58.06874,R,ugm-3,1.000,R,ugm-3 (BAM)
12-01-2020,05:00,12.21666,R,ugm-3,31.53100,R,ugm-3,50.26295,R,ugm-3,0.000,R,ugm-3 (BAM)